TimeCST,TemperatureF,Dew PointF,Humidity,Sea Level PressureIn,VisibilityMPH,Wind Direction,Wind SpeedMPH,Gust SpeedMPH,PrecipitationIn,Events,Conditions,WindDirDegrees,DateUTC
12:15 AM,12.2,8.6,85,30.03,10.0,WSW,6.9,-,N/A,,Overcast,250,2013-01-02 06:15:00
12:35 AM,12.2,8.6,85,30.03,10.0,WSW,6.9,-,N/A,,Overcast,240,2013-01-02 06:35:00
12:55 AM,12.2,8.6,85,30.03,10.0,WSW,6.9,-,N/A,,Overcast,240,2013-01-02 06:55:00
1:15 AM,12.2,10.4,92,30.03,10.0,WSW,8.1,-,N/A,,Overcast,240,2013-01-02 07:15:00
1:35 AM,12.2,10.4,92,30.02,10.0,WSW,6.9,-,N/A,,Overcast,240,2013-01-02 07:35:00
2:15 AM,14.0,10.4,86,30.02,10.0,WSW,5.8,-,N/A,,Overcast,250,2013-01-02 08:15:00
2:35 AM,14.0,10.4,86,30.03,10.0,SW,3.5,-,N/A,,Overcast,220,2013-01-02 08:35:00
2:55 AM,14.0,10.4,86,30.03,10.0,SSW,3.5,-,N/A,,Overcast,210,2013-01-02 08:55:00
3:15 AM,14.0,10.4,86,30.03,10.0,SW,3.5,-,N/A,,Overcast,220,2013-01-02 09:15:00
3:35 AM,14.0,10.4,86,30.03,10.0,SW,5.8,-,N/A,,Overcast,230,2013-01-02 09:35:00
4:15 AM,14.0,12.2,93,30.03,10.0,SW,5.8,-,N/A,,Overcast,220,2013-01-02 10:15:00
4:35 AM,14.0,12.2,93,30.03,10.0,SW,5.8,-,N/A,,Overcast,220,2013-01-02 10:35:00
5:45 AM,14.0,12.2,93,30.02,10.0,South,4.6,-,N/A,,Overcast,190,2013-01-02 11:45:00
6:50 AM,12.2,10.4,92,30.01,10.0,SSE,3.5,-,N/A,,Scattered Clouds,150,2013-01-02 12:50:00
7:55 AM,10.4,10.4,100,30.02,10.0,SE,3.5,-,N/A,Snow,Light Snow,130,2013-01-02 13:55:00
9:50 AM,15.8,12.2,86,30.03,10.0,South,10.4,-,N/A,,Mostly Cloudy,180,2013-01-02 15:50:00
10:45 AM,15.8,8.6,73,30.02,10.0,South,11.5,-,N/A,,Mostly Cloudy,180,2013-01-02 16:45:00
11:50 AM,17.6,8.6,68,29.99,10.0,South,9.2,-,N/A,,Mostly Cloudy,190,2013-01-02 17:50:00
12:45 PM,19.4,10.4,68,29.97,10.0,South,8.1,-,N/A,,Overcast,170,2013-01-02 18:45:00
1:45 PM,19.4,10.4,68,29.96,10.0,SSE,6.9,-,N/A,,Overcast,160,2013-01-02 19:45:00
2:45 PM,19.4,10.4,68,29.97,10.0,South,6.9,-,N/A,,Overcast,170,2013-01-02 20:45:00
3:45 PM,19.4,10.4,68,29.97,10.0,SE,6.9,-,N/A,,Mostly Cloudy,140,2013-01-02 21:45:00
4:45 PM,19.4,10.4,68,29.98,10.0,SSE,4.6,-,N/A,,Mostly Cloudy,150,2013-01-02 22:45:00
5:45 PM,17.6,10.4,73,29.99,10.0,SSE,4.6,-,N/A,,Overcast,150,2013-01-02 23:45:00
6:45 PM,17.6,10.4,73,29.99,10.0,SSE,3.5,-,N/A,,Overcast,160,2013-01-03 00:45:00
7:45 PM,17.6,10.4,73,29.99,10.0,SSE,4.6,-,N/A,,Overcast,150,2013-01-03 01:45:00
8:45 PM,17.6,10.4,73,29.98,10.0,Calm,Calm,-,N/A,,Overcast,0,2013-01-03 02:45:00
9:15 PM,17.6,12.2,79,29.99,10.0,South,3.5,-,N/A,,Overcast,170,2013-01-03 03:15:00
9:35 PM,17.6,12.2,79,29.98,10.0,SSW,3.5,-,N/A,,Overcast,200,2013-01-03 03:35:00
9:45 PM,17.6,10.4,73,29.98,10.0,SSW,4.6,-,N/A,,Overcast,210,2013-01-03 03:45:00
9:55 PM,17.6,12.2,79,29.98,10.0,SSW,4.6,-,N/A,,Overcast,200,2013-01-03 03:55:00
10:15 PM,19.4,12.2,74,29.98,10.0,SW,4.6,-,N/A,,Overcast,230,2013-01-03 04:15:00
10:35 PM,19.4,12.2,74,29.99,10.0,WSW,5.8,-,N/A,,Overcast,250,2013-01-03 04:35:00
10:55 PM,19.4,14.0,80,29.98,10.0,West,6.9,-,N/A,,Overcast,260,2013-01-03 04:55:00
11:15 PM,19.4,14.0,80,29.99,10.0,West,6.9,-,N/A,,Overcast,280,2013-01-03 05:15:00
11:35 PM,19.4,14.0,80,29.99,10.0,West,6.9,-,N/A,,Overcast,280,2013-01-03 05:35:00
11:55 PM,19.4,14.0,80,29.99,10.0,West,6.9,-,N/A,,Overcast,280,2013-01-03 05:55:00